User: anonymous   Login
Location: Unspecified
(0.0000°N, 0.0000°E)
Time: 18:08:55
(UTC+00:00)
Language:

STARLINK-11097 [DTC] - Orbit

View from above orbital plane
View from above orbital plane
View from above satellite
View from above satellite

Ground track
Ground track

The orbit is defined by the following mean orbital elements,

1 59759U          26145.41238498 +.00000000 +00000-0 +27232-4 0 00005
2 59759  53.1594 188.0387 0001179  96.6662 263.4490 15.69718630    06
Epoch (UTC): 25 May 2026 09:53:50
Eccentricity: 0.0001179
inclination: 53.1594°
perigee height: 359 km
apogee height: 360 km
right ascension of ascending node: 188.0387°
argument of perigee: 96.6662°
revolutions per day: 15.69718630
mean anomaly at epoch: 263.4490°

The dashed part of the orbit path shows where the satellite is in the earth's shadow,  

DLR